This demonstration page uses our WeatherBlox Daily Observations layout. Learn more.

39.92423, -83.80882

Hourly Observations for August 29, 2018

Temp ( °F °C ) Dew Point ( °F °C ) Humidity (%) Winds ( mph kmh ) Pressure ( in mb ) Visibility ( mi km ) Precip ( " mm )
12:56 am 00:56 Clear 75 23.9 72 22.2 90 90 SSW 5 7 30.06 1018 9 14.48406 0 0
1:56 am 01:56 Clear 74 23.3 72 22.2 94 94 SSW 7 11 30.06 1018 10 16.0934 0 0
2:56 am 02:56 Clear 74 23.3 72 22.2 94 94 SSW 7 11 30.04 1017 10 16.0934 0 0
3:56 am 03:56 Clear 74 23.3 71 21.7 91 91 S 8 13 30.01 1016 10 16.0934 0 0
4:56 am 04:56 Clear 74 23.3 71 21.7 91 91 SSW 6 9 30.01 1016 10 16.0934 0 0
5:56 am 05:56 Mostly Clear 73 22.8 70 21.1 90 90 SSW 5 7 30.02 1017 10 16.0934 0 0
6:56 am 06:56 Mostly Cloudy 71 21.7 70 21.1 96 96 Calm 30.03 1017 10 16.0934 0 0
7:56 am 07:56 Mostly Sunny 74 23.3 71 21.7 91 91 SW 7 11 30.05 1018 10 16.0934 0 0
8:56 am 08:56 Sunny 76 24.4 72 22.2 88 88 SSW 8 13 30.05 1018 10 16.0934 0 0
9:56 am 09:56 Mostly Cloudy 79 26.1 73 22.8 82 82 WSW 10 17 30.05 1018 10 16.0934 0 0
10:56 am 10:56 Mostly Sunny 82 27.8 74 23.3 77 77 WSW 13 20 30.05 1018 10 16.0934 0 0
11:56 am 11:56 Mostly Sunny 83 28.3 75 23.9 77 77 S 9 15 30.03 1017 10 16.0934 0 0
12:56 pm 12:56 Sunny 85 29.4 75 23.9 72 72 SSW 13 20 29.99 1016 10 16.0934 0 0
1:56 pm 13:56 Mostly Sunny 86 30 74 23.3 67 67 SSW 14 22 29.96 1015 10 16.0934 0 0
2:56 pm 14:56 Mostly Cloudy 87 30.6 73 22.8 63 63 SW 15 24 29.99 1016 10 16.0934 0 0
3:56 pm 15:56 Mostly Cloudy 85 29.4 75 23.9 72 72 SW 14 22 29.98 1015 10 16.0934 0 0
4:56 pm 16:56 Mostly Sunny 86 30 73 22.8 65 65 WSW 16 26 29.98 1015 10 16.0934 0 0
5:56 pm 17:56 Mostly Sunny 84 28.9 70 21.1 63 63 W 14 22 29.98 1015 10 16.0934 0 0
6:56 pm 18:56 Mostly Cloudy 78 25.6 70 21.1 76 76 W 7 11 30 1016 10 16.0934 0 0.0254
7:56 pm 19:56 Cloudy with Rain 76 24.4 73 22.8 91 91 N 3 6 30.02 1017 4 6.43736 0.05 1.27
8:08 pm 20:08 Cloudy with Light Rain 75 24 73 23 94 94 Calm 30 1016 10 16.0934 0 0.0254
8:19 pm 20:19 Cloudy with Thunderstorms 75 24 73 23 94 94 ENE 3 6 30.03 1017 10 16.0934 0 0.0254
8:39 pm 20:39 Cloudy 73 23 73 23 100 100 E 5 7 30.03 1017 10 16.0934 0 0.0254
8:56 pm 20:56 Mostly Cloudy 74 23.3 74 23.3 100 100 ENE 3 6 30.04 1017 10 16.0934 0 0.0254
9:56 pm 21:56 Clear 72 22.2 72 22.2 100 100 Calm 30.06 1018 10 16.0934 0 0
10:48 pm 22:48 Clear with Mist and Fog 72 22 72 22 100 100 Calm 30.06 1018 2.5 4.02335 0 0
10:56 pm 22:56 Clear with Mist and Fog 70 21.1 70 21.1 100 100 Calm 30.08 1019 2 3.21868 0 0
10:59 pm 22:59 Clear with Mist and Fog 70 21 70 21 100 100 Calm 30.06 1018 1 1.60934 0 0
11:06 pm 23:06 Clear with Mist and Fog 70 21 70 21 100 100 Calm 30.09 1019 0.75 1.207005 0 0
11:09 pm 23:09 Clear with Mist and Fog 70 21 70 21 100 100 Calm 30.09 1019 1.5 2.41401 0 0
11:13 pm 23:13 Clear with Mist and Fog 70 21 70 21 100 100 Calm 30.09 1019 3 4.82802 0 0
11:48 pm 23:48 Clear with Mist and Fog 70 21 70 21 100 100 Calm 30.09 1019 1.75 2.816345 0 0
11:51 pm 23:51 Clear with Mist and Fog 70 21 70 21 100 100 Calm 30.09 1019 0.75 1.207005 0 0
11:56 pm 23:56 Clear with Fog 68 20 68 20 100 100 Calm 30.1 1019 0.5 0.80467 0 0

Powered by AerisWeather